Location: Byszew
(52.1813°N, 19.2693°E)
Time: 23:14:11
(UTC+00:00)

Cosmos 2322 Rocket - Pass Details

Date: 03 July 2021
Orbit: 833 x 850 km, 71.0° (Epoch: 26 July)

Event Time Altitude Azimuth Distance (km) Brightness Sun altitude
Rises 22:49:43 0° 326° (NW) 3,423 6.3 -14.9°
Reaches altitude 10° 22:53:03 10° 346° (NNW) 2,482 5.9 -14.9°
Maximum altitude 22:56:50 18° 28° (NNE) 1,981 5.0 -14.9°
Drops below altitude 10° 23:00:35 10° 69° (ENE) 2,469 4.9 -14.9°
Sets 23:03:53 0° 89° (E) 3,398 5.4 -14.9°
